This is the latest recevied weather packets stored in our database for station/object KJ5IIV. If no packets are shown the sender has not sent any weather packets the latest 10 day(s).
| Time | Temp. | Humidity | Pressure | Rain* | Wind** | Luminosity | Snow |
|---|---|---|---|---|---|---|---|
| 1777790344 | 13.89° C | 75% | 1020.2 hPa | 0 mm | - | 0 W/m² | - |
| 1777790043 | 13.89° C | 74% | 1020.2 hPa | 0 mm | - | 0 W/m² | - |
| 1777789741 | 13.89° C | 75% | 1020.2 hPa | 0 mm | - | 0 W/m² | - |
| 1777789439 | 13.89° C | 76% | 1020.1 hPa | 0 mm | - | 0 W/m² | - |
| 1777789137 | 13.89° C | 81% | 1020.2 hPa | 0 mm | - | 0 W/m² | - |
| 1777788834 | 13.89° C | 79% | 1020.1 hPa | 0 mm | - | 0 W/m² | - |
| 1777788529 | 13.89° C | 79% | 1020.2 hPa | 0 mm | - | 0 W/m² | - |
| 1777788224 | 13.89° C | 75% | 1020.2 hPa | 0 mm | - | 0 W/m² | - |
| 1777787920 | 14.44° C | 79% | 1019.8 hPa | 0 mm | - | 0 W/m² | - |
| 1777787615 | 14.44° C | 77% | 1020.1 hPa | 0 mm | - | 0 W/m² | - |
| 1777787312 | 14.44° C | 76% | 1020 hPa | 0 mm | - | 0 W/m² | - |
| 1777787007 | 15° C | 71% | 1019.8 hPa | 0 mm | - | 0 W/m² | - |
| 1777786705 | 15° C | 66% | 1020.1 hPa | 0 mm | - | 0 W/m² | - |
| 1777786404 | 15° C | 65% | 1020.2 hPa | 0 mm | - | 0 W/m² | - |
| 1777786100 | 15° C | 69% | 1020 hPa | 0 mm | - | 0 W/m² | - |
| 1777785797 | 15° C | 72% | 1020.1 hPa | 0 mm | - | 0 W/m² | - |
| 1777785493 | 15° C | 71% | 1020.1 hPa | 0 mm | - | 0 W/m² | - |
| 1777785189 | 15° C | 68% | 1020 hPa | 0 mm | - | 0 W/m² | - |
| 1777784886 | 15° C | 70% | 1020 hPa | 0 mm | - | 0 W/m² | - |
| 1777784582 | 15° C | 69% | 1020.1 hPa | 0 mm | - | 0 W/m² | - |
| 1777784280 | 15° C | 70% | 1020.1 hPa | 0 mm | - | 0 W/m² | - |
| 1777783978 | 15° C | 73% | 1020 hPa | 0 mm | - | 0 W/m² | - |
| 1777783673 | 15° C | 72% | 1020.1 hPa | 0 mm | - | 0 W/m² | - |
| 1777783371 | 15.56° C | 72% | 1020.1 hPa | 0 mm | - | 0 W/m² | - |
| 1777783068 | 15.56° C | 70% | 1020.1 hPa | 0 mm | - | 0 W/m² | - |
* Rain latest hour (hover to see other rain measurements)
** Current wind speed in m/s (hover to see current wind gust speed)